Tracking 19709 objects as of 18-Jun-2019
HD Live streaming from Space Station
objects crossing your sky now

COSMOS 860 COOLANT

Track COSMOS 860 COOLANT now!
10-day predictions


NORAD ID: 29195
Int'l Code: 1976-103H
Perigee: 913.0 km
Apogee: 986.4 km
Inclination: 64.7 °
Period: 103.9 minutes
Semi major axis: 7320 km
RCS: 0.0092 m2 (small)
Launch date: October 17, 1976
Source: Commonwealth of Independent States (former USSR) (CIS)
Launch site: TYURATAM MISSILE AND SPACE COMPLEX (TTMTR)

Note: This is SATELLITE DEBRIS
aabbcc
Your satellite tracking list
Your tracking list is empty




NASA's NSSDC Master Catalog

Two Line Element Set (TLE):
1 29195U 76103H   19166.72915115 -.00000039 +00000-0 +45110-4 0  9995
2 29195 064.6987 250.8262 0050163 171.8967 188.2913 13.86041266284965
Source of the keplerian elements: AFSPC